Lid_Strength_Index
-1 -1 -1 -1 -1 -1 -1 -1 -1 -1 -1 -1 -1 -1 -1 -2 -2 -1 -2 -2 -2 -1 -1 -1 -1 -1 -2 -2 -2 -2 -2 -2 -2 -1 -1 -1 -2 -2 -2 -2 -2 -2 -2
-1 -1 -1 -1 -1 -1 -1 -1 -1 -1 -1 -1 -1 -1 -1 -2 -2 -2 -1 -2 -3 -2 -1 -1 -1 -2 -2 -1 -2 -1 -2 -2 -1 -1 -1 -1 -2 -1 -2 -2 -2 -2 -2
-1 -1 -1 -1 -1 -2 -2 -1 -1 -1 -1 -1 -1 -1 -1 -1 -1 -1 -1 -2 -2 -2 -1 -1 -1 -2 -2 -2 -1 -1 -2 -2 -1 -1 -1 -1 -1 -1 -2 -2 -2 -2 -2
-2 -1 -1 -1 -2 -1 -1 -1 -0 -0 -0 -0 -0 -0 -1 -1 -1 -1 -1 -1 -1 -1 -1 -2 -1 -1 -1 -2 -1 -1 -2 -2 -1 -1 -1 -1 -1 -1 -1 -2 -2 -2 -2
-1 -1 -1 -1 -2 -1 -1 -0 -0 -0 0 0 0 -0 -0 -0 -1 -1 -1 -1 -2 -1 -1 -1 -1 -1 -1 -2 -2 -2 -2 -2 -1 -1 -1 -1 -1 -1 -2 -2 -2 -2 -2
-1 -1 -1 -0 -0 -0 -0 -0 -0 -0 0 0 1 0 0 -0 -0 -0 -1 -1 -1 -1 -2 -2 -1 -1 -2 -2 -2 -2 -2 -1 -1 -1 -1 -1 -1 -1 -1 -2 -2 -2 -2
-1 -0 -0 -0 -0 0 0 -1 0 1 1 0 1 1 1 -0 -0 -0 -1 -0 -1 -1 -1 -1 -1 -1 -1 -2 -1 -1 -2 -2 -1 -1 -1 -1 -1 -1 -1 -1 -1 -1 -2
-1 -0 -0 0 -0 0 -0 -0 0 1 1 0 2 2 4 2 1 0 -0 -0 -1 -1 -1 -1 -1 -1 -1 -1 -2 -1 -2 -2 -2 -1 -1 -1 -1 -1 -1 -1 -1 -2 -1
-1 -1 -0 -0 -0 -0 1 0 0 1 2 1 0 2 5 5 2 1 0 0 -0 -0 -1 -1 -1 -1 -2 -2 -1 -1 -1 -1 -2 -2 -2 -1 -1 -1 -1 -1 -1 -1 -1
-0 -0 -0 -0 -0 -0 0 0 0 0 1 2 1 1 1 2 4 4 1 1 0 0 -0 -0 -1 -1 -1 -1 -2 -1 -1 -1 -2 -2 -2 -2 -1 -1 -1 -1 -1 -1 -1
-0 -0 -0 -0 -0 0 -0 -0 0 0 1 1 2 2 2 2 1 3 4 3 1 0 -0 -0 -1 -1 -1 -1 -1 -1 -0 -1 -1 -1 -2 -1 -1 -1 -1 -1 -1 -1 -1
0 -0 -0 -0 -0 -0 -0 0 -0 0 1 1 1 1 2 3 3 3 4 3 2 1 -0 -1 -1 -1 -1 -1 -1 -1 -0 -1 -0 -0 -1 -1 -1 -1 -1 -1 -1 -1 -1
1 0 0 0 0 -0 -0 -0 0 0 1 1 1 1 1 1 1 2 2 3 3 2 1 -0 -1 -1 -1 -1 -1 -1 -1 -0 0 0 0 -0 -0 -0 -1 -1 -1 -1 -1
1 -0 0 -0 0 -0 -0 -0 0 0 0 1 1 1 1 1 1 1 2 2 4 3 2 1 -0 -1 -1 -1 -1 -1 -1 0 1 1 1 1 1 0 0 -0 -0 -0 0
0 -0 -0 0 0 -0 -0 0 1 1 1 0 0 0 1 0 0 0 0 1 2 4 4 2 2 -1 -1 -1 -1 -2 -2 1 0 2 2 2 2 2 1 1 1 1 1
0 -0 0 0 0 0 0 1 1 0 1 1 1 0 1 0 0 0 0 1 1 2 4 1 1 -0 -1 -1 -0 -1 -1 0 1 2 2 2 3 2 2 2 2 2 1
0 0 0 0 1 1 0 1 0 1 1 1 0 1 1 -0 1 0 0 0 1 1 3 2 0 0 -0 -0 -0 -1 -1 -1 -1 2 3 2 3 3 3 3 3 3 2
0 0 0 1 1 1 0 1 1 1 1 1 1 1 1 1 1 -0 1 0 1 0 2 3 1 1 1 -0 -0 0 -1 -1 -1 2 3 3 4 4 4 4 4 4 4
0 0 0 1 1 1 1 1 1 1 1 1 1 1 1 1 1 1 1 1 1 1 1 2 2 1 1 0 1 0 -0 -0 -1 2 4 4 4 4 5 4 4 5 5
0 1 0 1 1 1 1 1 1 1 1 1 0 0 1 1 1 1 1 1 1 1 1 2 2 2 1 1 1 2 2 0 1 -1 1 1 3 4 5 5 4 4 6
0 0 1 1 0 1 1 1 1 1 1 1 0 0 -0 1 2 1 1 0 0 1 2 2 2 2 2 2 3 2 2 1 1 0 0 -0 0 -1 1 4 3 3 5
1 1 1 1 1 1 9 8 2 1 1 1 1 1 0 2 2 5 6 6 3 1 1 2 3 3 2 2 2 2 2 3 4 0 1 1 0 1 -0 -1 4 5 6
1 1 1 1 1 1 10 9 7 1 1 1 1 1 1 0 1 0 5 6 6 5 5 0 2 2 2 2 1 2 2 2 3 2 1 2 0 1 0 1 6 6 7
2 2 1 1 1 1 11 10 8 0 1 0 0 0 0 0 0 0 0 0 0 0 0 0 0 1 0 0 0 0 1 1 1 1 0 3 2 2 1 2 7 7 8
2 2 1 1 2 3 11 11 5 0 1 1 0 0 0 0 7 8 1 1 1 1 5 8 6 6 7 7 2 1 2 3 3 2 0 2 2 3 2 2 3 8 8
2 2 2 2 4 2 13 11 4 1 1 1 0 0 8 2 10 9 0 1 2 2 1 3 3 4 5 3 6 -0 1 3 3 3 0 2 2 3 3 2 2 2 2